• Join FlightAware (Why Join?)
  • Login
  • US Flag GB Flag 
23:55 EST


 

Airport Tracker/Info


-or-


 

Live Flight TrackerFlight Track Log ✈ N848TC ✈ 03-Jan-2014 ✈ KAPF - KAPF

Flight Track Log - Related Links

Times and Time Zones

All times are in EST time to prevent confusion due to time zone crossing. See the N848TC flight status page for this flight to view local times or setup timezone preferences in your user account.

Time Position Orientation Groundspeed Altitude Reporting Facility
EST Latitude Longitude Course Direction KTS MPH feet Rate Location/Type
10:54 26.1925 -81.6931 88° East 211 243 3,400  Level Miami Center
10:55 26.1953 -81.6075 88° East 250 288 5,700 2,550 Climbing Miami Center
10:56 26.2392 -81.5422 53° Northeast 259 298 8,500 2,800 Climbing Miami Center
10:57 26.2708 -81.4692 64° Northeast 259 298 11,300 2,550 Climbing Miami Center
10:58 26.3381 -81.4581 North 215 247 13,600 2,200 Climbing Miami Center
10:59 26.3692 -81.5264 297° West 195 224 15,700 2,100 Climbing Miami Center
11:00 26.3342 -81.5806 234° Southwest 210 242 17,800 2,150 Climbing Miami Center
11:01 26.2778 -81.6433 225° Southwest 230 265 20,000 1,100 Climbing Miami Center
11:02 26.2131 -81.7078 222° Southwest 273 314 20,000 50 Level Miami Center
11:03 26.1375 -81.7808 221° Southwest 326 375 20,100 1,350 Climbing Miami Center
11:04 26.1092 -81.8769 252° West 336 387 22,700 1,450 Climbing Miami Center
11:05 26.1119 -81.9789 272° West 319 367 23,000 1,300 Climbing Miami Center
11:06 26.1081 -82.0872 268° West 338 389 25,300 2,450 Climbing Miami Center
11:07 26.1111 -82.1775 272° West 325 374 27,900 2,350 Climbing Miami Center
11:08 26.1139 -82.2678 272° West 307 353 30,000 2,100 Climbing Miami Center
11:09 26.1256 -82.3494 279° West 285 328 32,100 1,900 Climbing Miami Center
11:10 26.1331 -82.4283 276° West 273 314 33,800 1,450 Climbing Miami Center
11:11 26.1358 -82.5186 272° West 261 300 35,000 600 Climbing Miami Center
11:12 26.1408 -82.6044 274° West 269 310 35,000  Level Miami Center
11:13 26.1431 -82.7017 271° West 299 344 35,000  Level Miami Center
11:14 26.1450 -82.8081 271° West 329 379 35,000  Level Miami Center
11:15 26.1447 -82.9214 270° West 350 403 35,000  Level Miami Center
11:16 26.1503 -83.0350 273° West 370 426 35,000 -50 Level Miami Center
11:17 26.2169 -83.1333 307° West 375 432 34,900 -750 Descending Miami Center
11:18 26.3322 -83.1719 343° North 376 433 33,500 -3,150 Descending Miami Center
11:19 26.4550 -83.1344 15° North 393 452 28,600 -5,350 Descending Miami Center
11:20 26.5331 -83.0178 53° Northeast 383 441 22,800 -5,100 Descending Miami Center
11:21 26.5028 -82.8889 105° East 338 389 18,400 -3,100 Descending Miami Center
11:22 26.4378 -82.7997 129° Southeast 320 368 16,600 -1,950 Descending Miami Center
11:23 26.3683 -82.7106 131° Southeast 344 396 14,500 -2,100 Descending Miami Center
11:24 26.2989 -82.6189 130° Southeast 372 428 12,400 -2,000 Descending Miami Center
11:25 26.2294 -82.5253 130° Southeast 383 441 10,500 -1,700 Descending Miami Center
11:26 26.1778 -82.4606 132° Southeast 346 398 9,000 -1,550 Descending Miami Center
11:27 26.1261 -82.3864 128° Southeast 310 357 7,400 -1,000 Descending Miami Center
11:28 26.1503 -82.3042 72° East 262 302 7,000 -200 Descending Miami Center
11:29 26.2006 -82.2372 50° Northeast 250 288 7,000  Level Miami Center
11:30 26.2492 -82.1700 51° Northeast 259 298 7,000  Level Miami Center
11:31 26.2908 -82.1139 50° Northeast 243 280 7,000 -600 Level Miami Center
11:32 26.3303 -82.0600 51° Northeast 223 257 5,800 -1,500 Descending Miami Center
11:33 26.3697 -82.0061 51° Northeast 223 257 4,000 -900 Descending Miami Center
11:34 26.4164 -81.9850 22° Northeast 198 228 4,000 -550 Level Miami Center
11:35 26.4331 -81.9300 71° East 174 200 2,900 -950 Descending Miami Center
11:36 26.4533 -81.8844 64° Northeast 166 191 2,100 -700 Descending Miami Center
11:37 26.4733 -81.8506 57° Northeast 143 165 1,500 -600 Descending Miami Center
11:39 26.5085 -81.7667 180° South  Level FlightAware Approximate
11:46 26.1500 -81.7667 180° South  Level FlightAware Approximate
11:47 26.1524 -81.7756 180° South  Level Estimated
11:48 26.1524 -81.7756 180° South  Level Estimated
11:49 26.1524 -81.7756 180° South  Level Estimated